Hourly Data Report for July 19, 2020

TORONTO CITY
ONTARIO
Current Station Operator: ECCC - MSC

43°40'00.000" N
79°24'00.000" W
112.50 m
6158355
71508
XTO

Download Data

Hourly Data (July 2020)
Hourly Data Report for July 19, 2020
TIME
LST
Temp Definition
°C
Dew Point Definition
°C
Rel Hum Definition
%
Precip. Amount Definition
mm

Wind Dir Definition
10's deg

Wind Spd Definition
km/h
Visibility Definition
km
Stn Press Definition
kPa
Hmdx Definition


Wind Chill Definition


Weather Definition


00:00 24.3 19.0 72 0.0       99.85 31   LegendNANA
01:00 24.0 18.8 73 0.0       99.76 31   LegendNANA
02:00 23.9 18.7 73 0.0       99.74 30   LegendNANA
03:00 23.4 18.3 73 0.0       99.73 30   LegendNANA
04:00 23.5 18.3 73 0.0       99.71 30   LegendNANA
05:00 24.2 18.8 72 0.0       99.70 31   LegendNANA
06:00 24.3 19.1 73 0.0       99.63 31   LegendNANA
07:00 25.4 19.9 72 0.0       99.60 33   LegendNANA
08:00 27.2 20.7 68 0.0       99.56 35   LegendNANA
09:00 28.9 20.9 62 0.0       99.49 37   LegendNANA
10:00 28.4 21.0 64 0.0       99.45 37   LegendNANA
11:00 28.6 21.4 65 0.0       99.48 37   LegendNANA
12:00 27.8 20.8 66 0.2       99.40 36   LegendNANA
13:00 22.0 20.1 89 11.6       99.32 30   LegendNANA
14:00 23.7 20.7 83 0.0       99.44 32   LegendNANA
15:00 25.0 19.1 70 0.0       99.50 32   LegendNANA
16:00 25.0 19.0 69 0.0       99.52 32   LegendNANA
17:00 25.5 19.0 67 0.0       99.36 32   LegendNANA
18:00 24.9 19.0 70 0.0       99.39 32   LegendNANA
19:00 24.3 19.3 74 0.0       99.33 31   LegendNANA
20:00 23.4 19.2 77 0.0       99.34 30   LegendNANA
21:00 23.3 19.4 79 0.0       99.44 30   LegendNANA
22:00 23.2 19.0 77 0.0       99.47 30   LegendNANA
23:00 22.6 18.8 79 0.0       99.46 29   LegendNANA

Notes on Data Quality.

Legend

  • E = Estimated
  • M = Missing
  • NA = Not Available*
  • [empty] = Indicates an unobserved value
Date modified: